Change the Weather History Date:

Tuesday, March 25, 2014

  Actual Average Record
Temperature  
Mean Temperature 34 °F 50 °F  
Max Temperature 39 °F 62 °F 87 °F (2007)
Min Temperature 28 °F 38 °F 16 °F (1960)
Degree Days  
Heating Degree Days 31 15  
Month to date heating degree days 536 463  
Since 1 July heating degree days 4043 3739  
Cooling Degree Days 0 0  
Month to date cooling degree days 0 0  
Year to date cooling degree days 0 0  
Moisture  
Dew Point 24 °F    
Average Humidity 63    
Maximum Humidity 85    
Minimum Humidity 40    
Precipitation  
Precipitation 0.02 in 0.13 in 1.69 in (1965)
Month to date precipitation 3.22 3.26  
Year to date precipitation 9.73 10.51  
Sea Level Pressure  
Sea Level Pressure 30.02 in    
Wind  
Wind Speed 10 mph (NW)    
Max Wind Speed 25 mph    
Max Gust Speed 38 mph    
Visibility 5 miles    
Events Snow    
T = Trace of Precipitation, MM = Missing Value Source: NWS Daily Summary

Daily Weather History Graph

Daily Weather History Graph

Search for Another Location

Airport or City:

Trip Planner

Search our weather history database for the weather conditions in past years. The results will help you decide how hot, cold, wet, or windy it might be!

Date:

Astronomy

Mar. 25, 2014 Rise Set
Actual Time 7:32 AM EDT 7:52 PM EDT
Civil Twilight 7:06 AM EDT 8:18 PM EDT
Nautical Twilight 6:35 AM EDT 8:49 PM EDT
Astronomical Twilight 6:04 AM EDT 9:20 PM EDT
Moon 3:46 AM EDT (3/25) 2:28 PM EDT (3/25)
Length of Visible Light 13h 12m
Length of Day
12h 20m
Waning Crescent, 32% of the Moon is Illuminated
Mar 25
Waning Crescent
Mar 30
New
Apr 7
First Quarter
Apr 15
Full
Apr 22
Last Quarter

Hourly Weather History & Observations

Time (EDT) Temp. Windchill Dew Point Humidity Pressure Visibility Wind Dir Wind Speed Gust Speed Precip Events Conditions
12:53 AM 37.0 °F 33.3 °F 15.1 °F 41% 30.06 in 10.0 mi NNE 4.6 mph - N/A   Overcast
1:53 AM 37.0 °F 32.4 °F 15.1 °F 41% 30.03 in 10.0 mi NE 5.8 mph - N/A   Overcast
2:53 AM 36.0 °F 28.5 °F 17.1 °F 46% 30.01 in 10.0 mi NNE 10.4 mph - N/A   Overcast
3:53 AM 35.1 °F 28.6 °F 19.0 °F 52% 30.02 in 10.0 mi North 8.1 mph 18.4 mph N/A   Overcast
4:53 AM 35.1 °F 29.3 °F 21.9 °F 59% 29.99 in 10.0 mi NNE 6.9 mph - N/A   Overcast
5:53 AM 33.1 °F 28.7 °F 24.1 °F 70% 29.99 in 10.0 mi North 4.6 mph - N/A   Overcast
6:41 AM 32.0 °F 27.5 °F 26.1 °F 79% 29.97 in 9.0 mi NE 4.6 mph - N/A   Overcast
6:53 AM 32.0 °F 27.5 °F 26.1 °F 79% 29.98 in 9.0 mi NNE 4.6 mph - N/A   Overcast
7:53 AM 30.9 °F 27.5 °F 26.1 °F 82% 29.98 in 10.0 mi East 3.5 mph - 0.00 in   Overcast
8:53 AM 32.0 °F - 27.0 °F 82% 29.98 in 10.0 mi Calm Calm - N/A   Overcast
9:15 AM 32.0 °F 28.7 °F 27.0 °F 82% 29.96 in 2.0 mi WSW 3.5 mph - 0.00 in Snow Light Snow
9:23 AM 32.0 °F - 27.0 °F 82% 29.96 in 1.0 mi Calm Calm - 0.00 in Snow Light Snow
9:42 AM 32.0 °F 27.5 °F 28.0 °F 85% 29.97 in 1.5 mi West 4.6 mph - 0.00 in Snow Light Snow
9:53 AM 33.1 °F 27.7 °F 28.0 °F 82% 29.99 in 1.2 mi West 5.8 mph - 0.00 in Snow Light Snow
10:01 AM 33.1 °F 26.1 °F 28.0 °F 82% 29.97 in 0.8 mi West 8.1 mph - 0.00 in Snow Light Snow
10:12 AM 33.1 °F 27.7 °F 28.9 °F 85% 29.97 in 0.8 mi WNW 5.8 mph - 0.00 in Snow Light Snow
10:53 AM 33.1 °F 24.4 °F 28.9 °F 85% 30.00 in 1.0 mi WNW 11.5 mph - 0.01 in Snow Light Snow
11:00 AM 33.1 °F 24.9 °F 28.9 °F 85% 29.98 in 1.2 mi WNW 10.4 mph - 0.00 in Snow Light Snow
11:18 AM 33.1 °F 24.4 °F 28.9 °F 85% 29.99 in 1.0 mi NW 11.5 mph - 0.00 in Snow Light Snow
11:43 AM 34.0 °F 24.2 °F 28.9 °F 82% 29.99 in 1.5 mi WNW 15.0 mph 19.6 mph 0.00 in Snow Light Snow
11:47 AM 33.8 °F 25.3 °F 28.4 °F 81% 30.00 in 2.0 mi NW 11.5 mph 19.6 mph 0.00 in Snow Light Snow
11:53 AM 34.0 °F 25.5 °F 28.0 °F 79% 30.02 in 3.0 mi NW 11.5 mph - 0.00 in Snow Light Snow
12:05 PM 34.0 °F 25.0 °F 28.0 °F 79% 29.99 in 3.0 mi WNW 12.7 mph - 0.00 in Snow Light Snow
12:12 PM 34.0 °F 23.0 °F 28.0 °F 79% 29.99 in 1.5 mi NW 18.4 mph 23.0 mph 0.00 in Snow Light Snow
12:21 PM 32.0 °F 23.0 °F 27.0 °F 82% 30.00 in 0.8 mi NW 11.5 mph - 0.00 in Snow Light Snow
12:29 PM 33.1 °F 24.4 °F 28.9 °F 85% 30.00 in 1.5 mi WNW 11.5 mph - 0.00 in Snow Light Snow
12:41 PM 33.1 °F 23.4 °F 28.0 °F 82% 30.00 in 0.8 mi NW 13.8 mph 20.7 mph 0.01 in Snow Light Snow
12:44 PM 33.1 °F 23.4 °F 28.0 °F 82% 30.00 in 1.0 mi NW 13.8 mph - 0.01 in Snow Light Snow
12:53 PM 34.0 °F 23.8 °F 28.9 °F 82% 30.02 in 2.0 mi WNW 16.1 mph - 0.01 in Snow Light Snow
12:56 PM 35.1 °F 25.9 °F 28.9 °F 78% 30.00 in 3.0 mi WNW 13.8 mph - 0.00 in Snow Light Snow
1:32 PM 34.0 °F 23.8 °F 25.0 °F 70% 30.00 in 4.0 mi NW 16.1 mph 25.3 mph 0.00 in Snow Light Snow
1:53 PM 35.1 °F 25.5 °F 26.1 °F 70% 30.02 in 10.0 mi WNW 15.0 mph 24.2 mph 0.00 in   Overcast
2:10 PM 34.0 °F 24.6 °F 25.0 °F 70% 30.01 in 3.0 mi NW 13.8 mph - 0.00 in Snow Light Snow
2:14 PM 34.0 °F 24.6 °F 26.1 °F 73% 30.01 in 1.8 mi NW 13.8 mph - 0.00 in Snow Light Snow
2:22 PM 36.0 °F 27.1 °F 26.1 °F 67% 30.00 in 3.0 mi WNW 13.8 mph - 0.00 in Snow Light Snow
2:53 PM 37.0 °F 27.7 °F 25.0 °F 62% 30.02 in 9.0 mi WNW 16.1 mph 24.2 mph 0.00 in Snow Light Snow
3:14 PM 34.0 °F 23.0 °F 26.1 °F 73% 30.01 in 1.5 mi WNW 18.4 mph 33.4 mph 0.00 in Snow Light Snow
3:24 PM 34.0 °F 25.0 °F 28.9 °F 82% 30.00 in 0.8 mi WNW 12.7 mph - 0.00 in Snow Light Snow
3:28 PM 35.1 °F 25.9 °F 28.9 °F 78% 30.00 in 1.8 mi NW 13.8 mph 21.9 mph 0.00 in Snow Light Snow
3:30 PM 35.1 °F 24.8 °F 28.0 °F 76% 30.00 in 3.0 mi WNW 17.3 mph 24.2 mph 0.00 in Snow Light Snow
3:45 PM 37.9 °F 29.6 °F 26.1 °F 62% 29.99 in 10.0 mi West 13.8 mph 24.2 mph 0.00 in   Scattered Clouds
3:53 PM 36.0 °F 28.0 °F 24.1 °F 62% 30.01 in 10.0 mi WNW 11.5 mph 23.0 mph 0.00 in   Scattered Clouds
4:40 PM 34.0 °F 23.4 °F 23.0 °F 64% 30.02 in 5.0 mi NW 17.3 mph 26.5 mph 0.00 in Snow Light Snow
4:53 PM 34.0 °F 23.8 °F 24.1 °F 67% 30.04 in 3.0 mi NW 16.1 mph 27.6 mph 0.00 in Snow Light Snow
5:53 PM 35.1 °F 26.4 °F 21.0 °F 57% 30.06 in 10.0 mi NW 12.7 mph - 0.00 in   Overcast
6:53 PM 34.0 °F 23.8 °F 14.0 °F 44% 30.10 in 10.0 mi WNW 16.1 mph 21.9 mph N/A   Overcast
7:53 PM 32.0 °F 20.8 °F 12.9 °F 45% 30.13 in 10.0 mi NNW 17.3 mph 26.5 mph N/A   Mostly Cloudy
8:53 PM 30.9 °F 25.2 °F 10.9 °F 43% 30.15 in 10.0 mi Variable 5.8 mph - N/A   Partly Cloudy
9:53 PM 30.0 °F 22.4 °F 10.9 °F 45% 30.18 in 10.0 mi WNW 8.1 mph - N/A   Partly Cloudy
10:53 PM 30.0 °F 22.4 °F 12.0 °F 47% 30.20 in 10.0 mi NW 8.1 mph - N/A   Scattered Clouds
11:53 PM 28.9 °F 21.9 °F 12.9 °F 51% 30.21 in 10.0 mi NNW 6.9 mph - N/A   Clear